Wind_Speed
39 39 38 37 38 40 40 40 39 37 36 34 32 30 28 27 27 27 26 25 25 26 26 27 28 28 29 29 30 31 32 32 33 33 34 35 37 38 40 43 45 47 50 52 54 56 58 60 62 64 66 68 70 72 74 75 76 77 76 76 75 75 74 74 73 73 73 74 74 75 76 77 78 79 81 82 83 84 86 86 87 88 89 89 90 91 92 93
40 40 40 38 36 38 39 38 38 37 35 34 32 30 28 26 25 24 24 25 25 26 26 26 27 27 28 28 29 30 30 30 31 32 34 36 38 40 42 45 48 50 52 54 56 58 60 62 64 67 69 71 72 74 74 74 74 73 71 71 70 70 69 70 70 70 71 72 73 74 75 77 78 79 80 82 84 85 86 87 88 89 89 89 90 90 91 92
41 40 41 39 36 37 39 37 38 38 35 33 32 30 28 26 25 24 24 25 25 26 26 26 26 26 27 27 27 28 29 30 32 34 36 38 40 43 45 48 50 53 55 57 58 60 63 65 67 69 70 72 72 71 70 69 68 67 66 66 66 66 67 68 68 69 70 71 72 74 75 76 78 79 81 83 84 86 88 89 90 90 91 91 91 92 92 93
41 41 42 41 37 36 37 38 39 38 35 33 31 30 28 27 26 25 25 25 27 27 26 26 26 25 25 26 27 28 30 31 34 36 38 40 43 45 48 50 53 55 57 59 61 63 65 67 68 69 69 68 67 65 64 63 63 63 63 63 64 65 65 66 67 67 68 70 71 72 74 75 77 79 81 83 85 86 88 90 91 92 92 93 94 94 95 95
43 43 43 41 38 36 36 37 39 38 36 34 32 30 28 28 27 26 25 27 29 28 27 26 25 25 26 27 28 29 31 33 35 38 40 42 45 47 50 52 54 56 58 60 63 64 66 66 66 66 64 62 61 60 60 60 60 61 61 62 62 62 63 63 64 65 66 67 68 70 71 73 75 77 79 81 83 85 88 89 91 92 93 94 95 96 96 97
43 43 42 41 39 37 36 38 40 39 35 34 32 30 29 28 27 26 26 28 31 29 27 26 26 27 28 28 29 31 33 35 38 40 42 44 47 49 51 53 55 57 60 62 63 64 63 63 61 59 58 57 57 57 57 58 58 58 58 58 58 59 60 60 61 62 63 64 65 67 69 70 73 75 77 80 82 85 86 88 89 91 93 94 95 96 97 98
42 43 41 41 41 37 38 40 40 37 34 33 32 30 28 27 26 26 26 29 31 29 27 28 28 28 29 29 31 33 35 37 39 41 44 46 48 51 53 55 57 59 60 61 61 60 58 57 55 54 54 54 54 54 54 54 54 54 54 55 55 56 56 57 58 59 60 62 63 65 67 69 72 75 78 80 82 84 85 87 89 90 92 93 95 96 97 98
42 42 39 41 42 39 37 37 37 36 35 32 30 29 27 25 25 26 27 29 30 29 28 28 29 29 30 31 33 35 36 38 41 43 45 47 50 52 54 56 58 58 58 57 55 54 53 52 51 51 50 50 50 50 50 50 51 51 52 53 53 54 54 55 56 57 59 60 62 64 66 69 72 74 76 77 79 81 83 86 88 90 91 92 94 95 96 97
41 40 37 40 43 41 37 35 36 36 34 30 28 27 25 24 25 27 29 30 30 29 28 29 29 30 31 32 33 35 38 40 42 44 46 48 50 52 54 55 55 54 53 51 50 50 49 48 47 47 47 47 47 47 47 48 49 50 50 51 52 53 53 54 55 57 58 60 62 64 66 69 72 73 74 75 77 79 81 84 86 87 89 90 92 93 94 95
40 38 36 39 42 42 40 38 38 35 30 27 25 24 24 25 26 28 30 30 29 29 29 29 30 30 31 32 34 37 39 41 43 45 47 49 51 52 52 51 50 48 47 46 46 46 45 44 43 43 43 43 44 45 46 47 48 49 49 51 53 53 53 54 56 58 60 62 63 65 68 71 74 74 75 75 76 77 78 80 82 84 85 87 88 89 90 91
41 41 38 39 40 41 42 42 39 32 27 24 23 23 24 26 26 28 30 29 28 28 28 29 29 29 31 33 36 39 41 43 44 46 47 49 49 49 47 46 44 44 43 43 42 41 40 40 40 40 41 41 42 43 45 46 47 49 50 52 55 56 55 56 58 62 65 67 68 69 71 73 76 76 75 75 74 74 74 75 76 78 79 81 83 84 85 87
42 44 42 41 38 37 38 38 35 29 25 23 23 24 25 26 26 28 29 27 27 26 26 27 29 31 34 37 38 40 42 43 45 46 46 47 45 44 42 41 41 41 40 40 38 38 38 38 39 39 39 40 42 43 46 47 49 51 53 55 58 61 60 60 64 69 74 76 77 78 78 78 79 78 76 74 73 72 72 72 72 73 73 75 76 78 80 82
42 44 44 41 37 33 31 29 28 26 25 23 23 24 24 25 26 27 27 26 26 26 27 29 32 35 36 37 39 40 42 42 43 44 44 42 40 39 39 38 37 37 37 36 36 36 37 37 38 38 39 41 44 46 49 50 51 54 57 59 62 66 69 69 72 77 82 85 86 87 87 87 84 81 78 75 74 72 70 70 69 69 69 69 70 72 74 76
42 44 44 42 38 34 30 27 25 24 24 23 22 22 22 22 23 25 25 26 27 27 29 32 34 36 37 38 39 39 40 41 41 41 39 38 36 36 35 34 33 33 34 33 34 35 35 37 38 40 42 44 47 50 52 53 54 57 61 65 66 69 74 76 78 81 85 89 91 93 94 93 89 85 81 78 75 72 69 68 67 66 66 66 66 67 68 69
40 41 42 42 38 34 30 28 26 25 24 22 21 21 20 19 22 24 26 26 27 29 31 33 35 36 36 37 37 37 38 38 37 36 34 33 33 32 31 30 31 31 32 32 33 34 35 38 40 44 46 48 50 53 57 59 61 62 65 68 70 71 75 79 81 84 87 91 94 97 97 96 92 88 84 79 76 72 69 67 65 64 64 64 64 64 64 65
40 39 39 39 37 33 31 29 27 26 25 23 22 21 20 20 22 24 25 26 28 31 32 33 34 35 34 34 35 36 35 33 32 31 30 30 29 28 28 29 29 30 31 32 34 35 37 40 43 46 49 51 54 57 60 62 64 66 68 70 73 74 75 79 83 85 89 93 96 99 99 97 95 90 85 81 77 74 70 68 65 63 62 62 62 62 63 63
40 39 37 37 35 33 31 29 28 26 25 23 22 21 22 23 25 26 28 29 30 31 32 32 32 32 32 33 33 32 30 28 28 27 27 27 26 26 27 27 28 29 30 32 34 36 39 42 45 48 51 55 58 60 61 63 65 67 70 71 74 76 77 79 83 85 89 93 96 99 99 98 96 91 86 82 79 75 72 68 65 63 61 60 60 60 60 61
39 38 36 34 31 30 29 28 27 26 24 22 21 21 23 25 27 28 29 29 30 31 30 30 29 29 30 30 29 27 25 25 25 25 25 24 24 25 25 26 28 29 31 33 36 38 41 44 47 52 55 58 59 60 63 65 67 69 71 72 74 78 80 82 84 86 88 92 96 99 99 98 96 92 88 85 81 77 73 70 66 64 62 60 59 59 59 60
37 36 34 31 29 28 27 26 26 24 23 21 21 23 25 26 28 29 29 29 29 28 27 26 27 28 27 26 24 23 23 23 24 23 22 22 22 24 25 26 28 30 33 36 39 41 44 46 50 53 56 57 59 62 64 67 70 72 74 74 76 79 82 84 87 88 89 92 97 100 101 100 97 93 89 85 82 77 73 70 67 64 62 61 60 59 59 59
34 33 31 28 26 25 24 23 23 23 23 23 24 25 26 27 28 28 28 27 25 23 24 24 25 24 22 22 21 21 21 21 21 20 19 19 21 22 24 27 29 32 35 38 40 42 44 47 50 53 55 58 61 64 67 69 71 73 75 77 78 80 83 85 87 89 91 93 98 102 103 102 100 95 90 86 82 78 73 70 67 65 63 61 60 59 59 58
31 31 28 25 22 21 20 20 21 22 23 25 26 27 27 28 27 26 24 21 20 21 22 22 21 20 19 19 18 18 19 19 18 17 17 18 20 23 26 29 32 35 37 38 40 42 45 48 51 54 57 61 64 67 69 70 71 74 76 78 78 79 81 85 89 91 92 94 98 103 105 105 102 96 91 86 82 78 74 71 68 66 64 62 61 60 59 58
28 28 26 23 20 18 18 18 18 19 21 23 24 25 24 23 21 19 17 17 19 20 20 19 18 17 17 17 17 17 16 16 15 15 15 17 20 23 28 31 33 35 36 38 41 44 47 50 52 56 60 62 65 68 71 72 74 76 77 77 77 78 79 83 88 92 95 96 99 103 104 104 102 96 90 86 81 77 74 71 69 67 65 64 62 60 59 58
26 27 25 22 19 16 15 15 15 15 17 18 18 17 16 15 14 14 14 16 17 17 16 15 15 14 14 14 14 14 13 13 13 14 16 17 20 24 28 31 33 35 37 40 42 45 49 52 54 58 62 64 66 69 72 75 77 77 77 77 78 80 81 83 87 92 96 98 99 101 102 102 100 95 89 84 78 74 71 69 68 67 65 64 62 61 60 59
27 26 24 21 18 15 14 13 12 12 12 12 11 10 10 10 11 13 14 15 14 14 13 12 12 11 11 11 12 12 12 12 13 15 17 19 22 25 28 31 34 35 37 41 45 48 52 54 56 60 63 65 67 70 73 75 77 78 78 79 80 82 84 86 88 91 94 97 98 99 100 101 100 95 88 82 76 72 68 66 64 63 62 61 61 61 60 60
26 25 23 21 18 15 13 12 10 10 9 8 8 8 9 9 11 12 12 12 11 10 10 10 9 9 9 10 10 11 11 13 15 17 20 21 23 25 28 31 34 36 39 42 47 51 55 57 59 62 64 66 69 71 73 75 77 79 80 82 83 84 85 87 90 92 94 96 98 98 99 99 99 96 90 83 77 71 67 64 63 63 61 59 58 57 58 58
26 24 22 20 18 15 12 10 9 8 7 7 7 7 8 9 10 10 9 8 8 8 7 8 7 7 8 9 10 11 12 14 17 19 21 22 24 26 28 32 36 39 42 46 50 54 56 59 61 63 65 68 70 72 74 76 78 81 83 84 85 86 86 88 91 93 94 96 97 98 100 101 101 100 94 87 81 76 72 69 66 65 63 60 58 56 56 56
25 23 21 19 16 13 11 10 9 7 6 6 6 7 8 9 9 7 6 6 5 5 6 6 6 6 7 8 10 11 13 15 17 18 21 23 25 26 29 33 37 41 45 49 53 56 59 61 63 65 67 68 70 71 74 77 80 84 86 87 87 87 88 89 90 91 93 94 96 98 102 105 105 104 99 93 88 84 78 74 70 68 67 64 62 60 59 58
25 22 19 17 14 12 11 10 8 6 6 6 6 8 8 8 6 4 4 4 3 4 4 5 5 5 7 9 11 12 13 15 17 19 22 24 26 29 31 34 38 43 48 51 55 59 62 63 65 67 68 69 70 72 75 78 81 85 87 88 89 89 90 90 89 90 92 93 97 101 105 107 108 108 107 102 96 90 83 78 75 72 69 65 62 60 60 59
23 20 18 15 13 12 10 9 7 6 6 6 7 8 7 6 3 2 3 2 2 2 3 3 4 6 8 10 11 12 14 16 18 21 24 26 28 31 34 36 40 44 48 52 55 59 62 64 66 68 70 71 72 74 77 79 82 85 88 89 91 91 90 90 88 89 91 94 99 106 108 110 111 112 113 111 105 98 91 85 80 74 69 66 62 60 60 60
22 19 17 15 13 11 10 8 7 7 7 7 8 7 6 3 1 0 1 1 1 1 2 3 4 6 8 10 11 12 14 16 18 21 24 28 31 34 37 41 43 45 47 51 54 57 60 63 66 69 71 73 75 77 78 80 83 85 87 88 89 89 88 89 90 89 92 97 103 108 110 111 113 115 115 115 112 107 100 91 84 78 74 71 68 65 64 63
21 18 16 14 12 11 9 8 7 8 8 8 8 6 4 2 2 2 2 2 0 1 2 3 5 7 9 9 10 12 14 17 20 24 28 33 36 38 40 42 45 47 48 50 52 54 57 61 65 68 71 73 76 79 80 82 84 86 87 86 86 86 85 87 90 93 96 102 105 107 109 112 114 116 116 116 115 111 104 96 89 83 79 76 73 69 66 65
20 18 16 14 13 11 9 9 9 9 9 9 7 6 4 3 3 3 3 2 0 1 2 3 5 6 8 9 11 13 16 20 24 28 31 34 34 34 36 38 42 45 47 48 51 54 57 60 63 66 70 72 75 78 80 82 84 85 88 88 87 88 89 89 92 96 99 103 105 106 109 112 114 115 116 117 117 114 109 103 97 91 86 82 78 74 70 67
19 17 16 14 13 11 10 10 10 10 10 9 7 5 4 4 4 4 3 3 1 2 2 3 5 6 8 10 12 14 18 22 25 28 30 31 32 32 34 38 42 45 47 49 51 54 57 60 62 66 69 73 75 78 81 84 86 88 91 94 95 97 99 99 99 101 101 102 105 108 109 111 113 114 117 118 117 117 116 112 106 100 93 88 83 79 75 71
18 17 16 14 12 12 11 11 11 11 10 8 6 6 6 6 5 5 4 3 2 2 2 3 5 6 8 10 13 16 19 22 24 27 29 31 33 35 36 39 43 46 49 50 51 53 56 59 63 67 70 73 76 80 83 86 89 92 95 98 101 102 105 107 106 106 105 103 105 108 109 110 112 114 116 118 117 118 120 119 115 108 100 94 89 85 80 76
18 17 15 14 13 12 12 12 13 12 10 8 7 7 7 7 6 6 5 3 2 1 2 3 5 7 9 11 14 17 20 23 24 26 29 31 34 35 37 39 42 45 49 52 54 56 59 62 65 68 71 74 77 80 84 87 90 93 95 97 101 102 104 107 107 108 109 108 106 107 108 109 111 113 115 117 118 120 121 122 120 114 106 99 93 88 85 81
18 16 15 15 14 14 14 13 12 10 9 9 8 8 8 7 7 6 5 3 2 1 2 4 6 8 10 12 15 18 21 23 24 27 29 31 33 35 37 39 42 45 49 53 56 59 62 65 68 71 73 75 78 81 84 87 90 93 95 96 100 103 103 103 104 104 107 110 109 108 108 109 112 114 115 116 119 121 122 122 121 117 112 104 97 92 88 84
17 17 16 16 16 16 16 14 11 10 9 9 9 9 8 8 7 6 4 3 2 2 3 5 6 8 11 13 16 19 22 24 26 28 29 31 34 36 38 40 43 46 50 54 58 61 64 67 70 72 74 76 79 82 85 88 90 93 95 97 99 102 104 103 104 103 104 108 111 111 112 113 115 116 116 116 119 122 122 121 120 119 116 110 102 95 90 87
18 17 17 18 18 17 15 13 12 12 11 10 9 9 9 8 7 5 4 3 3 3 4 6 7 9 11 14 17 20 23 26 28 29 31 32 34 36 39 42 44 47 50 55 58 62 65 68 70 73 75 78 80 82 85 87 90 92 96 99 100 103 105 107 108 109 109 109 110 112 114 115 117 118 119 119 121 122 122 121 121 120 118 114 108 101 94 89
20 20 20 19 18 16 14 13 12 12 12 11 10 9 8 7 6 6 5 4 3 4 5 6 8 10 13 15 18 21 24 27 29 30 32 34 36 38 41 43 46 48 51 55 59 63 66 69 71 74 76 79 80 83 85 86 89 92 95 98 101 104 106 109 110 113 114 113 110 111 114 118 120 120 122 123 123 123 123 123 122 121 120 118 113 107 99 93
22 22 21 19 17 16 14 13 13 13 12 11 10 9 8 7 6 6 5 4 4 4 5 7 9 11 13 16 18 22 25 28 30 31 34 36 38 40 43 45 47 50 52 55 59 62 66 69 72 75 77 79 81 82 84 86 88 92 94 97 101 103 104 107 110 112 115 117 116 114 115 118 121 122 125 126 125 123 124 124 123 122 121 120 118 113 106 98
23 22 20 19 18 16 15 14 14 13 12 11 9 8 7 6 7 7 6 4 3 4 6 8 10 11 14 16 19 22 26 28 30 32 35 37 40 42 44 46 49 51 54 56 58 61 65 69 72 74 76 79 82 83 84 86 89 92 95 98 100 102 104 106 109 112 114 116 119 120 119 120 122 125 128 128 127 125 124 124 124 123 122 121 120 118 112 104
22 21 20 19 18 17 16 15 14 13 12 10 9 8 7 6 7 7 5 3 2 4 5 7 9 11 14 16 19 22 25 28 30 33 36 38 41 43 46 48 50 53 55 57 59 61 64 68 71 74 77 80 82 84 85 86 89 91 94 97 99 102 104 107 110 112 112 113 116 120 122 122 124 126 128 128 128 127 125 123 123 123 123 122 121 120 117 111
22 21 20 19 18 17 16 16 15 13 11 10 9 7 7 7 7 6 4 2 1 3 5 7 9 11 14 17 20 22 25 28 30 33 36 39 42 44 47 49 52 54 57 59 61 62 64 66 69 72 75 78 80 83 85 87 88 90 93 95 98 101 104 107 109 112 113 113 114 118 122 123 124 125 127 127 127 128 126 124 123 123 124 123 122 121 119 116
22 22 21 20 20 19 18 16 14 13 11 10 9 8 7 6 6 5 3 1 1 2 4 6 9 12 14 17 20 22 25 27 30 33 36 39 42 44 47 50 53 56 59 61 63 64 66 67 69 71 73 75 78 81 84 87 90 92 93 95 98 101 103 106 108 110 113 114 114 116 120 123 123 124 126 126 125 127 128 126 124 124 125 125 124 122 121 120
21 21 21 21 21 20 19 17 15 13 11 10 9 8 6 5 5 4 2 1 2 3 4 6 9 12 15 17 20 22 25 27 30 33 36 39 41 45 47 50 53 56 59 62 65 67 69 70 72 74 76 79 82 85 88 90 92 94 95 96 98 100 103 105 107 109 111 114 115 115 118 120 121 122 123 123 123 124 126 128 127 126 126 126 126 124 122 121
21 21 21 21 21 21 19 18 16 14 12 10 9 7 6 5 4 3 1 1 2 3 5 7 11 13 15 17 20 23 26 28 31 33 36 38 41 44 47 50 53 56 59 62 65 68 70 72 74 77 80 83 85 88 90 92 93 95 96 96 97 100 102 104 106 108 110 112 114 116 118 119 119 121 121 122 123 124 126 127 128 127 127 126 127 126 124 122
21 21 21 22 21 21 20 18 16 14 12 11 9 7 5 5 4 2 1 2 3 5 6 8 12 14 16 18 21 24 27 29 32 34 36 39 41 43 46 49 52 55 58 61 64 67 70 73 76 78 80 82 84 87 89 91 93 94 95 96 97 99 101 103 105 108 109 111 114 116 118 119 120 122 123 123 124 127 128 128 129 129 128 127 127 126 125 123
22 21 21 22 22 21 20 18 16 14 12 11 8 7 6 5 4 2 2 3 5 6 7 9 12 15 17 20 22 25 28 30 32 34 36 39 41 43 45 48 51 54 57 60 64 67 70 73 76 78 80 82 84 86 88 90 92 93 94 95 96 97 100 102 104 106 109 111 113 115 118 120 120 121 123 125 126 129 131 131 130 130 129 128 127 127 126 124
21 21 22 22 22 21 20 18 16 14 13 11 9 7 6 5 4 3 4 5 6 8 9 11 13 16 18 21 24 26 28 30 33 35 37 38 40 42 44 47 50 53 56 60 63 66 69 72 75 77 79 81 83 85 87 89 91 92 93 95 95 96 98 100 103 105 107 109 112 115 118 120 121 121 122 125 128 131 132 133 133 132 131 131 129 127 125 124
21 22 23 23 22 22 20 18 16 15 13 11 9 8 6 6 5 5 6 7 8 10 11 12 14 17 19 22 25 27 29 31 33 35 37 38 40 42 44 47 50 53 56 59 62 65 67 70 73 76 78 80 81 83 85 88 90 91 92 94 95 95 97 100 102 105 106 108 110 113 116 120 121 121 121 125 129 130 132 134 134 133 133 133 131 128 126 125
21 22 24 24 23 22 20 18 17 15 13 12 10 8 7 7 7 7 8 9 10 12 13 15 16 18 21 23 26 28 29 31 33 35 37 38 40 42 44 47 49 52 55 58 61 64 66 69 72 74 76 78 80 82 84 87 89 90 92 93 94 95 97 99 102 105 107 108 110 112 115 118 120 120 120 123 127 129 131 132 134 135 135 134 132 130 128 127
22 23 24 24 24 22 20 19 17 15 14 13 11 10 9 9 9 9 10 11 12 14 15 17 19 20 22 25 27 29 30 31 33 35 37 39 41 42 45 47 49 52 54 57 60 63 65 68 70 72 75 77 80 82 84 86 87 89 92 93 94 95 96 98 101 104 107 109 110 112 114 117 119 119 119 121 125 128 130 132 133 135 136 134 133 132 130 129
Wind_Direction
196 193 194 198 201 203 205 207 210 212 215 216 218 220 223 227 230 232 234 237 241 246 250 255 259 263 267 271 274 277 280 283 284 286 286 287 288 290 292 293 293 293 294 294 295 296 297 297 299 300 301 301 302 301 301 300 300 299 299 298 297 296 295 294 293 293 292 292 291 290 290 289 288 287 286 285 284 282 281 279 278 277 275 274 273 272 271 269
198 195 195 198 201 205 208 210 212 214 215 217 218 220 222 225 229 232 235 239 243 248 253 259 264 269 272 274 277 279 282 284 285 286 288 290 292 293 293 294 294 295 296 297 298 299 300 302 303 303 303 303 303 302 301 301 300 299 299 298 298 298 298 298 299 298 298 297 296 295 294 293 291 290 289 288 286 285 284 283 282 280 279 277 276 274 272 271
198 196 196 198 201 207 210 212 215 216 216 217 219 221 223 227 231 235 239 244 248 253 259 264 270 274 276 278 279 281 283 285 288 290 292 294 294 294 294 295 296 298 299 300 302 303 304 304 304 304 304 303 303 302 302 301 301 301 302 302 303 304 304 304 303 301 300 298 297 295 294 292 291 290 288 287 286 285 284 283 282 281 280 279 278 276 275 273
198 197 196 197 201 206 211 214 217 219 218 219 220 221 225 229 234 240 244 249 254 257 262 268 272 276 278 279 281 283 285 289 292 293 294 294 295 296 297 298 300 301 302 304 304 305 305 305 305 304 304 304 304 304 304 305 306 307 308 308 307 307 305 304 302 300 298 297 295 294 293 292 290 289 288 286 285 284 283 282 282 281 279 278 277 276 275 274
197 198 197 197 201 206 211 216 219 220 218 220 222 224 227 232 237 242 247 253 257 259 263 269 272 275 278 281 284 286 289 291 293 293 294 295 297 298 300 301 302 303 304 305 305 306 306 306 306 306 306 306 308 309 311 311 311 311 310 308 307 305 304 303 302 301 300 299 298 297 296 294 293 291 288 286 285 284 282 281 280 279 278 277 276 276 275 274
197 199 197 196 200 205 210 216 220 220 217 219 222 225 229 235 240 245 250 255 258 260 263 268 272 275 279 283 285 288 290 292 293 294 296 297 299 300 301 302 303 304 305 306 307 307 307 307 308 309 310 312 314 315 314 313 311 310 309 308 307 306 306 306 306 306 305 305 304 302 300 298 295 292 289 287 286 285 283 282 281 279 278 277 276 275 274 272
197 200 197 196 198 203 211 218 221 221 220 219 221 225 231 237 242 247 251 254 257 260 263 268 273 277 281 284 287 289 291 293 294 296 297 299 300 301 302 304 306 307 308 308 308 308 308 310 312 314 316 317 317 315 313 312 311 311 310 310 310 310 311 311 311 311 311 309 307 305 302 299 295 293 291 289 288 287 285 284 282 280 279 277 276 274 273 271
196 200 198 198 198 201 210 218 222 223 222 220 221 226 233 238 244 247 247 251 257 261 265 269 274 279 282 285 289 291 292 293 295 297 299 301 302 304 305 307 309 309 309 308 309 310 313 316 318 319 318 317 315 314 313 313 313 313 314 315 315 315 316 316 316 316 314 312 309 306 303 300 297 295 294 292 291 289 287 285 284 282 280 278 276 274 273 271
195 195 197 199 199 200 207 215 221 221 220 220 222 227 233 239 243 244 245 250 258 263 266 271 276 280 285 288 291 292 293 294 296 299 301 302 304 307 308 309 309 309 310 311 313 316 318 320 320 319 318 317 316 316 317 317 317 318 320 321 320 319 320 321 321 320 318 315 313 310 308 305 303 301 298 296 294 291 289 287 285 284 282 280 279 277 275 273
190 187 191 197 198 200 204 212 218 218 219 223 228 231 234 238 240 244 248 252 259 265 269 274 279 284 287 289 290 291 293 296 299 301 303 305 307 308 309 309 310 311 313 315 317 320 321 321 320 319 319 319 320 321 322 323 325 325 325 325 324 325 326 328 327 325 322 320 318 316 314 312 310 308 304 301 298 295 292 289 287 285 283 282 281 279 278 276
187 187 193 201 202 203 207 212 216 218 222 227 230 231 233 237 240 246 251 255 262 269 275 280 282 284 286 287 290 293 297 299 301 303 306 308 309 309 310 311 312 314 317 319 321 323 323 321 320 319 320 322 325 327 329 331 331 330 331 332 333 333 334 335 334 331 329 326 325 324 322 320 319 315 311 308 304 300 296 293 290 287 285 283 281 279 278 277
185 188 198 204 203 202 207 212 215 218 222 224 224 227 232 237 243 249 255 260 266 273 277 280 282 284 286 290 293 297 299 302 304 307 308 309 310 312 313 314 316 319 321 323 325 325 323 322 322 323 326 330 334 336 337 337 337 338 338 340 341 341 341 341 340 338 337 335 334 333 331 329 327 323 318 314 310 306 302 298 295 292 288 286 283 281 279 277
186 189 198 204 201 200 205 207 210 214 216 220 222 228 235 242 249 255 261 264 267 272 276 280 283 286 290 294 297 299 302 305 307 308 308 310 313 314 315 318 321 323 325 327 328 327 327 327 329 333 337 340 342 343 342 342 343 344 344 346 347 348 347 347 346 345 343 341 340 339 338 337 334 329 324 320 315 312 308 304 300 296 293 290 287 284 282 280
190 191 197 204 207 206 207 206 207 210 213 218 223 230 239 248 255 261 265 267 271 275 279 282 285 289 294 297 299 302 304 306 307 308 311 314 315 317 319 323 325 326 327 329 330 330 331 334 338 342 344 346 347 347 347 346 347 348 351 351 352 352 351 350 350 349 346 343 343 342 342 341 338 333 328 324 321 317 313 308 304 300 297 293 290 287 284 282
192 194 198 205 210 209 209 209 210 213 215 219 225 232 241 252 261 265 268 271 275 277 279 284 289 294 298 300 301 303 305 307 310 313 315 317 318 321 324 326 326 328 330 331 333 335 340 345 348 348 349 349 350 350 351 352 353 354 355 355 354 354 353 352 351 350 348 346 345 344 344 343 339 335 331 328 324 320 316 312 309 305 301 298 294 291 288 285
193 195 200 206 211 211 211 211 212 215 218 221 226 234 242 252 259 265 268 271 275 278 283 290 294 297 299 300 302 305 308 312 314 316 317 320 323 325 326 327 329 331 334 337 342 347 350 352 352 352 352 353 354 355 356 358 358 358 358 358 356 354 354 354 353 352 349 348 347 346 346 345 341 337 334 330 327 323 320 317 314 310 306 303 300 297 294 290
193 196 201 206 210 210 211 212 213 216 220 225 232 239 246 252 257 262 268 272 278 284 291 294 296 298 299 302 306 310 314 316 317 319 323 325 326 326 328 330 331 335 340 346 349 352 352 353 354 355 355 357 358 359 360 0 360 360 359 359 357 354 354 354 354 353 351 349 348 347 347 346 343 339 336 333 330 328 325 322 319 315 311 308 304 301 298 294
192 196 201 207 209 210 210 212 214 218 222 228 236 242 248 254 259 265 270 277 284 290 293 294 296 298 301 306 311 314 315 317 322 325 327 328 328 328 330 333 338 344 348 350 351 353 356 358 359 360 1 2 2 2 1 0 360 0 360 359 357 355 354 355 354 354 352 350 349 349 349 348 345 342 339 336 334 331 329 326 323 319 316 313 309 305 302 299
189 194 199 205 210 211 211 213 216 220 224 229 236 243 250 256 262 268 275 283 288 291 292 293 296 301 306 311 313 316 320 325 328 330 331 331 330 332 336 340 346 350 351 354 358 1 3 4 4 5 5 3 3 2 2 2 2 2 1 360 359 357 356 356 355 355 354 352 351 351 351 350 348 345 342 339 337 334 332 329 326 323 320 316 313 309 306 302
185 190 194 200 206 210 212 214 217 221 225 230 237 244 250 257 264 272 279 285 287 289 291 295 301 306 310 313 317 324 328 329 329 330 332 329 330 335 339 343 349 354 358 2 5 6 5 6 7 7 5 4 4 5 4 4 4 4 3 2 0 359 358 358 356 356 356 355 353 353 354 352 350 348 345 342 339 337 334 331 328 325 322 319 316 313 309 306
182 186 189 193 200 206 210 213 216 221 226 232 238 244 251 258 266 274 279 283 286 289 293 299 304 307 311 318 326 329 329 330 331 333 332 331 334 340 345 351 358 3 6 7 7 6 7 8 9 9 8 8 8 8 7 6 5 5 5 4 1 360 360 359 358 357 357 357 356 356 356 354 352 350 348 345 342 339 336 333 331 328 325 322 319 317 314 311
178 182 185 189 195 200 205 209 214 219 227 233 240 247 254 261 267 273 278 282 286 291 296 301 306 312 321 329 333 333 332 332 331 329 328 331 338 347 356 3 7 8 7 7 7 9 10 11 11 12 12 11 11 11 10 8 7 7 6 4 1 360 0 1 360 358 358 358 359 358 357 356 354 353 351 348 345 342 338 336 333 330 328 325 323 321 318 316
174 176 179 184 188 192 197 201 206 215 225 234 241 248 254 260 266 273 280 285 290 295 299 305 315 327 335 337 336 334 328 323 322 326 331 340 350 359 6 9 11 9 8 8 9 11 13 13 13 14 14 13 13 13 12 10 9 9 7 5 3 0 0 1 1 360 359 359 360 360 359 357 357 356 354 351 348 344 341 338 335 332 330 328 326 324 322 320
170 171 173 176 179 184 189 192 201 213 222 231 238 245 254 263 272 280 285 289 292 296 305 318 331 340 341 335 331 324 320 324 331 339 348 357 3 6 10 13 13 11 9 10 11 13 15 15 15 16 16 15 15 15 14 13 11 10 8 6 4 3 2 2 2 1 1 360 360 0 360 359 359 359 357 354 351 347 344 341 337 335 333 331 329 328 326 323
167 168 171 173 175 180 185 188 200 212 221 229 239 251 261 272 281 285 287 288 295 305 322 337 342 344 338 330 326 324 330 340 348 358 5 9 9 9 11 14 15 11 9 11 15 16 17 17 17 17 17 17 17 17 16 15 13 11 10 8 6 5 3 3 3 3 2 0 360 0 1 1 1 1 0 358 355 352 348 345 342 340 338 336 333 330 328 326
167 168 169 172 176 181 184 190 203 211 218 230 245 260 273 282 284 284 284 289 307 325 338 346 347 342 331 324 326 333 347 359 7 12 12 10 9 8 10 14 15 13 12 16 19 20 19 19 19 18 18 19 19 18 17 16 15 13 12 10 8 7 5 5 5 4 2 2 1 0 2 3 3 4 4 2 360 357 354 351 348 345 343 340 338 335 333 330
167 167 169 173 178 182 186 193 202 206 218 238 255 271 280 279 275 275 282 297 324 343 344 346 346 334 325 328 338 350 3 10 13 10 7 9 10 9 11 14 17 18 19 21 23 22 21 21 20 20 19 19 19 19 18 17 17 16 14 12 10 8 7 7 7 5 4 4 2 1 3 4 4 5 6 5 4 2 359 355 353 351 348 346 343 341 338 336
167 168 171 174 178 182 188 194 199 207 227 248 264 274 271 263 261 271 292 313 354 360 345 342 340 331 331 342 355 7 12 9 7 6 9 13 14 13 13 13 18 24 25 24 24 23 23 22 21 21 20 19 19 19 18 18 17 17 16 14 11 10 9 8 8 7 6 5 4 3 3 4 5 6 7 8 7 5 2 360 357 355 353 350 347 344 342 340
167 168 168 170 174 180 186 191 199 215 238 255 263 260 249 243 249 280 313 353 37 357 332 329 329 334 346 360 13 19 16 11 10 12 15 16 16 17 15 14 19 25 25 23 22 23 24 23 22 21 20 19 18 18 18 18 17 17 17 16 13 11 10 9 8 8 7 6 5 5 4 5 5 7 9 9 9 7 5 3 0 358 355 353 351 349 347 345
164 164 165 167 172 178 183 193 207 226 244 251 248 238 229 225 206 116 18 50 72 330 329 331 341 358 11 20 25 22 14 11 11 13 15 16 18 18 17 16 18 21 21 20 20 22 23 22 21 21 20 18 18 18 18 17 17 16 17 17 15 12 10 8 8 8 7 8 9 8 6 6 6 8 10 10 10 9 7 5 2 0 358 357 356 354 352 350
161 162 165 167 173 180 189 203 219 232 236 233 224 215 206 178 136 109 109 131 193 339 356 6 18 23 24 22 18 13 10 10 12 14 16 17 18 19 19 18 16 16 17 17 17 19 20 20 19 19 19 18 17 17 17 17 16 15 15 16 16 13 10 9 8 8 9 10 11 10 8 7 8 8 9 11 11 10 9 6 5 3 2 0 359 357 356 354
161 164 167 170 177 185 196 212 222 225 221 211 203 193 176 145 126 116 131 159 214 44 41 32 30 22 17 18 17 17 17 17 18 19 20 20 20 20 19 17 14 13 14 15 16 15 16 17 17 17 17 17 17 16 16 15 15 15 14 14 15 14 11 10 9 10 11 11 11 11 10 10 9 9 9 10 11 11 10 9 7 6 4 3 1 360 358 357
165 167 169 173 181 191 204 214 216 212 205 196 188 174 154 138 133 135 146 160 140 96 63 33 25 17 20 26 26 24 23 23 22 21 20 20 19 19 17 14 11 10 11 13 15 13 13 13 14 14 15 15 16 15 15 15 14 14 13 12 13 14 12 11 10 11 12 12 11 11 11 11 10 10 10 10 11 11 12 11 10 8 6 4 2 1 360 359
167 168 170 177 187 198 206 207 202 197 192 184 175 163 149 141 144 149 150 147 134 115 55 32 23 23 30 32 31 29 26 24 22 20 19 18 17 17 15 13 11 10 10 10 10 10 10 11 12 13 14 15 15 14 14 14 14 14 14 13 12 14 14 12 11 11 11 12 12 12 11 11 11 11 11 10 10 11 12 13 12 10 8 6 4 2 1 0
165 169 175 183 192 198 200 197 193 188 180 172 168 159 149 146 149 150 149 144 136 120 51 32 28 32 36 35 34 30 26 24 22 21 19 17 16 16 14 13 12 11 10 8 8 9 10 11 12 13 14 14 14 14 14 13 13 13 14 13 12 13 15 14 13 12 11 11 13 13 12 12 12 12 13 12 10 11 13 14 13 12 9 8 6 4 3 2
169 175 181 186 188 188 187 186 184 181 176 170 165 158 150 151 154 153 154 155 139 114 55 41 40 41 39 36 34 28 25 25 23 21 19 16 15 14 13 13 13 12 11 10 10 10 11 11 12 13 14 14 14 14 13 13 13 13 13 13 13 13 14 15 15 13 12 12 12 12 12 12 13 13 14 13 12 13 13 14 14 13 11 9 8 6 5 3
174 178 181 182 181 180 179 176 172 173 175 170 162 158 154 154 157 158 161 157 130 98 61 53 49 45 41 36 32 28 26 26 23 20 17 16 15 13 12 12 13 13 12 12 11 11 11 12 12 12 13 13 13 13 13 12 12 12 12 13 13 12 12 14 15 14 14 14 13 12 13 13 14 14 14 14 14 14 14 14 14 14 13 12 10 8 7 5
175 176 176 176 175 176 176 174 171 171 172 169 163 159 156 156 160 163 161 149 121 88 63 55 49 43 38 34 31 29 28 26 23 19 16 14 12 11 11 12 12 13 13 13 12 11 11 11 11 11 11 12 12 13 13 12 11 11 12 12 12 12 12 12 13 13 13 15 14 13 13 13 14 14 13 14 15 16 14 14 13 14 14 13 12 10 9 8
172 170 170 170 171 173 174 174 174 172 169 167 165 162 159 159 164 166 159 143 112 81 59 48 43 38 35 32 31 29 28 24 20 17 14 12 10 9 10 11 11 12 13 13 12 12 11 10 10 10 10 11 12 12 11 11 11 11 11 12 12 12 11 11 12 13 12 13 14 14 14 14 15 14 14 14 15 16 15 14 13 13 13 14 13 12 11 10
167 166 167 168 169 169 171 173 173 171 170 167 166 166 165 166 169 166 156 138 104 73 52 41 37 35 33 31 30 28 26 21 17 14 12 10 9 9 9 10 10 11 12 12 13 12 11 10 10 10 10 10 10 11 11 10 11 10 11 11 12 12 11 10 11 13 13 12 12 14 15 15 15 15 15 15 15 15 16 15 14 13 13 13 14 13 12 11
165 165 166 167 167 167 169 172 173 172 172 169 169 172 175 176 173 166 156 135 97 57 39 35 33 33 31 29 27 25 22 17 14 11 10 9 9 8 8 8 9 9 10 11 12 13 12 11 10 9 10 9 9 9 10 10 10 10 10 11 11 11 12 11 11 12 13 12 12 13 14 15 16 16 16 15 14 15 15 16 15 14 13 13 13 14 13 12
166 167 167 167 166 167 170 173 175 175 174 173 175 180 184 183 176 168 158 136 77 36 28 29 30 30 28 25 23 21 18 14 11 9 8 8 7 7 7 7 8 8 9 10 11 12 12 12 10 9 9 9 9 8 9 10 10 10 10 10 10 10 11 11 11 11 13 14 13 13 14 15 16 16 16 16 15 14 15 15 16 15 14 13 13 13 13 13
167 168 168 167 166 168 173 175 176 178 179 179 181 185 189 185 177 171 164 148 24 16 20 24 26 24 22 20 18 17 15 12 8 7 7 6 6 6 6 6 6 6 6 7 8 10 11 11 11 10 9 8 8 7 7 8 9 10 10 9 9 9 10 11 11 10 11 13 14 13 14 15 15 16 16 16 15 15 14 14 15 15 15 14 13 13 13 13
170 171 169 167 167 170 174 177 181 184 184 184 186 188 189 185 176 172 176 206 337 353 8 15 18 17 16 15 14 13 12 8 6 5 5 4 4 4 4 4 4 4 4 5 5 6 8 8 9 9 8 7 7 7 7 7 8 9 10 9 8 9 9 10 11 10 10 11 13 14 13 14 15 15 15 15 16 16 15 14 14 15 15 15 14 13 13 13
174 175 172 168 169 172 175 180 186 189 187 189 192 192 189 182 173 173 191 276 320 337 355 6 9 10 9 9 9 9 7 4 2 1 1 1 1 1 2 2 2 3 3 3 3 3 4 6 6 6 6 6 6 7 7 7 7 8 9 9 8 7 8 9 10 11 10 10 11 13 13 13 14 15 15 15 15 16 16 15 15 15 16 16 15 14 13 13
177 178 174 171 172 174 178 183 189 191 191 194 199 199 190 179 174 178 219 303 314 327 345 357 1 3 3 3 3 4 2 360 358 358 358 359 359 360 0 1 1 2 2 2 2 2 2 3 4 5 5 5 5 5 6 6 6 7 7 8 7 7 7 8 8 9 10 10 10 11 12 12 13 13 14 15 15 16 16 16 15 15 15 16 16 15 13 13
180 180 177 174 175 178 181 187 192 194 196 201 205 204 194 184 182 195 263 303 315 322 334 348 354 356 356 356 358 359 358 357 357 358 359 359 359 359 360 360 1 1 0 0 0 1 1 2 3 4 4 4 4 4 5 5 5 6 6 6 6 6 6 7 7 8 9 10 10 10 11 11 12 12 13 15 16 16 16 16 16 15 15 15 16 15 14 13
181 181 180 178 179 182 186 190 194 197 202 208 211 209 204 198 200 223 276 297 308 316 325 337 346 348 349 351 354 355 356 356 357 358 360 360 359 360 360 359 360 360 359 359 359 360 0 1 1 2 3 3 3 4 4 4 4 5 5 5 5 6 5 6 6 7 8 9 9 9 9 11 11 12 12 14 15 16 16 16 16 16 15 15 15 15 15 14
182 183 182 182 184 187 191 194 197 202 209 215 217 217 216 215 223 248 277 295 304 310 317 326 336 341 342 346 350 352 354 355 356 358 359 359 359 359 359 359 358 358 358 358 359 359 360 360 360 0 1 2 2 3 3 3 4 4 3 3 4 5 5 5 6 6 7 8 9 9 9 9 11 11 12 13 15 15 15 16 16 16 16 15 15 15 15 14
185 185 186 187 189 192 196 199 203 209 215 222 227 228 228 231 241 260 277 291 301 306 311 318 326 333 336 340 345 349 351 352 354 355 356 356 356 357 357 357 357 357 357 358 358 358 359 359 359 359 360 0 1 2 2 2 3 3 2 2 3 4 4 4 5 6 6 7 8 9 8 9 10 11 11 12 14 14 15 15 15 16 16 15 15 15 15 15
188 189 190 192 193 196 199 203 209 216 222 230 236 240 243 247 253 265 278 289 297 303 307 312 319 325 330 334 340 344 347 349 351 352 352 352 353 354 355 355 356 356 356 357 357 357 357 358 358 358 359 359 0 0 1 2 2 2 2 2 2 2 3 4 4 5 5 6 7 8 8 8 9 10 11 12 13 13 14 15 15 15 16 15 15 14 14 15
191 193 195 196 197 200 204 208 214 221 228 235 244 250 255 260 264 271 280 288 294 299 304 308 313 319 324 328 334 339 342 344 347 348 348 349 350 352 352 353 354 354 355 355 355 355 356 356 357 357 358 359 359 359 0 1 1 1 1 2 1 1 2 3 4 4 5 5 6 7 8 8 8 9 10 11 12 12 13 14 15 15 15 15 15 14 14 14
Height
10724 10726 10730 10734 10737 10740 10742 10744 10747 10749 10752 10755 10757 10759 10761 10762 10764 10765 10766 10766 10766 10766 10766 10767 10767 10768 10769 10769 10769 10769 10769 10768 10767 10766 10764 10763 10761 10760 10758 10755 10753 10750 10747 10745 10742 10738 10735 10731 10728 10724 10720 10716 10711 10707 10702 10698 10693 10689 10684 10679 10674 10669 10665 10660 10656 10651 10645 10639 10633 10627 10621 10615 10610 10604 10599 10592 10587 10582 10577 10573 10570 10566 10562 10559 10556 10554 10551 10547
10722 10725 10728 10732 10736 10739 10741 10744 10746 10748 10751 10754 10756 10758 10759 10761 10763 10764 10764 10764 10764 10764 10765 10765 10766 10767 10767 10768 10767 10767 10766 10765 10764 10762 10761 10759 10758 10756 10753 10750 10748 10745 10742 10739 10736 10733 10729 10725 10721 10717 10713 10709 10705 10700 10695 10691 10686 10681 10677 10671 10666 10662 10657 10652 10647 10641 10635 10629 10623 10617 10611 10605 10599 10592 10586 10580 10573 10568 10562 10559 10555 10550 10547 10544 10541 10538 10534 10530
10720 10724 10727 10731 10735 10738 10740 10743 10745 10746 10750 10752 10754 10756 10758 10760 10761 10762 10762 10762 10762 10763 10764 10765 10765 10766 10766 10766 10765 10764 10763 10762 10761 10759 10757 10755 10753 10751 10748 10746 10743 10740 10737 10734 10730 10727 10723 10719 10715 10711 10707 10702 10698 10693 10689 10684 10679 10673 10669 10664 10659 10654 10649 10643 10638 10632 10625 10619 10613 10607 10600 10594 10588 10581 10574 10567 10560 10554 10548 10544 10540 10535 10532 10528 10524 10520 10516 10513
10719 10723 10726 10729 10733 10736 10738 10741 10742 10745 10748 10751 10753 10755 10757 10759 10759 10760 10761 10761 10761 10761 10762 10763 10764 10764 10763 10763 10762 10761 10760 10759 10757 10755 10753 10751 10749 10746 10743 10741 10738 10734 10731 10727 10724 10721 10718 10714 10710 10705 10701 10696 10691 10687 10682 10677 10672 10666 10661 10656 10651 10646 10641 10636 10630 10623 10617 10610 10604 10597 10590 10583 10577 10569 10562 10554 10547 10541 10535 10529 10525 10520 10516 10512 10507 10503 10500 10497
10717 10721 10724 10728 10732 10735 10737 10739 10740 10743 10747 10750 10752 10754 10756 10757 10758 10758 10759 10759 10759 10759 10761 10761 10761 10761 10761 10761 10760 10758 10756 10755 10753 10751 10749 10747 10745 10742 10739 10736 10733 10730 10726 10723 10720 10716 10712 10708 10703 10699 10695 10690 10685 10680 10675 10670 10665 10659 10654 10649 10644 10639 10634 10628 10622 10615 10608 10601 10594 10587 10580 10572 10564 10557 10548 10540 10533 10527 10521 10515 10510 10504 10500 10495 10491 10487 10484 10480
10716 10720 10724 10728 10730 10734 10736 10736 10738 10741 10746 10749 10751 10753 10754 10755 10756 10757 10758 10757 10756 10757 10759 10759 10759 10759 10758 10758 10756 10755 10753 10752 10749 10747 10745 10743 10740 10738 10735 10732 10729 10726 10723 10719 10715 10710 10706 10702 10698 10693 10688 10683 10678 10673 10668 10662 10657 10652 10647 10642 10636 10631 10626 10620 10613 10606 10599 10592 10585 10577 10569 10560 10551 10543 10534 10526 10519 10513 10507 10501 10495 10490 10484 10479 10475 10471 10466 10462
10715 10719 10723 10726 10729 10732 10733 10734 10737 10741 10744 10747 10749 10751 10752 10754 10755 10756 10756 10754 10753 10755 10757 10757 10757 10756 10756 10755 10753 10752 10750 10748 10746 10744 10742 10739 10737 10734 10731 10728 10725 10722 10718 10714 10709 10705 10701 10697 10692 10688 10683 10678 10673 10668 10662 10656 10651 10646 10641 10635 10629 10624 10619 10613 10606 10599 10591 10583 10575 10566 10557 10547 10537 10529 10522 10515 10508 10501 10494 10487 10481 10474 10468 10463 10457 10452 10448 10444
10714 10718 10723 10725 10728 10731 10732 10734 10737 10740 10742 10745 10748 10750 10751 10753 10754 10754 10753 10751 10751 10754 10754 10754 10754 10754 10753 10752 10751 10749 10747 10745 10743 10741 10738 10736 10733 10730 10727 10724 10721 10717 10713 10709 10704 10700 10696 10692 10688 10683 10678 10673 10668 10662 10657 10651 10645 10640 10634 10628 10622 10617 10612 10606 10599 10591 10583 10573 10564 10554 10545 10535 10526 10519 10513 10505 10497 10489 10481 10473 10465 10458 10452 10445 10440 10435 10430 10426
10713 10719 10722 10723 10726 10729 10731 10734 10735 10737 10740 10743 10747 10749 10751 10752 10751 10750 10749 10749 10750 10752 10752 10752 10752 10751 10751 10750 10748 10746 10744 10742 10740 10738 10735 10733 10730 10727 10724 10721 10717 10712 10707 10703 10699 10696 10692 10688 10684 10679 10674 10669 10663 10657 10651 10645 10639 10633 10628 10621 10615 10610 10605 10598 10590 10582 10573 10563 10553 10544 10534 10524 10515 10508 10502 10494 10486 10477 10468 10459 10451 10443 10435 10429 10423 10418 10414 10409
10713 10718 10719 10721 10725 10728 10730 10732 10733 10736 10739 10743 10746 10748 10749 10749 10748 10747 10747 10748 10749 10750 10750 10750 10750 10749 10748 10747 10745 10743 10741 10740 10737 10735 10732 10730 10727 10724 10721 10717 10712 10708 10704 10700 10696 10693 10689 10685 10680 10675 10670 10664 10658 10652 10646 10640 10633 10628 10622 10615 10607 10602 10598 10590 10581 10571 10561 10552 10543 10535 10524 10513 10503 10495 10487 10480 10472 10463 10454 10445 10436 10428 10420 10413 10407 10401 10396 10392
10712 10716 10718 10719 10723 10726 10728 10730 10732 10736 10740 10742 10745 10746 10746 10746 10746 10745 10745 10747 10748 10748 10748 10748 10747 10746 10745 10744 10743 10741 10738 10736 10734 10732 10730 10727 10724 10721 10716 10712 10708 10704 10701 10697 10694 10690 10686 10681 10676 10671 10666 10660 10654 10648 10641 10636 10629 10622 10616 10608 10599 10593 10589 10581 10571 10559 10549 10539 10532 10524 10514 10503 10492 10482 10473 10465 10456 10446 10437 10429 10420 10412 10405 10398 10391 10385 10379 10374
10710 10714 10716 10718 10721 10725 10727 10730 10733 10737 10739 10741 10743 10743 10744 10744 10744 10743 10744 10746 10746 10746 10746 10745 10744 10743 10743 10741 10740 10738 10735 10733 10731 10729 10726 10723 10720 10716 10712 10708 10704 10701 10698 10694 10691 10686 10682 10677 10672 10667 10661 10656 10650 10643 10637 10631 10623 10615 10608 10601 10591 10582 10577 10571 10560 10548 10536 10526 10518 10510 10501 10492 10481 10469 10460 10450 10440 10430 10421 10413 10404 10397 10389 10382 10376 10370 10364 10359
10709 10712 10715 10717 10721 10724 10727 10730 10734 10736 10738 10740 10741 10742 10742 10742 10742 10742 10743 10744 10744 10744 10744 10743 10742 10741 10740 10739 10737 10735 10733 10731 10729 10726 10723 10720 10716 10712 10709 10705 10702 10698 10695 10691 10687 10682 10678 10673 10668 10663 10657 10651 10645 10638 10631 10625 10619 10610 10601 10593 10586 10575 10567 10561 10552 10539 10526 10513 10504 10495 10485 10476 10466 10454 10443 10434 10424 10415 10407 10398 10389 10381 10374 10367 10361 10355 10349 10344
10708 10711 10714 10717 10720 10723 10727 10730 10733 10735 10737 10738 10740 10740 10741 10741 10741 10741 10742 10742 10743 10742 10742 10741 10740 10739 10738 10736 10734 10732 10730 10729 10726 10723 10720 10716 10713 10709 10706 10703 10699 10696 10693 10689 10685 10680 10675 10669 10664 10659 10653 10648 10641 10634 10627 10620 10613 10605 10596 10588 10583 10574 10564 10554 10546 10535 10520 10506 10493 10482 10472 10461 10449 10437 10426 10418 10409 10400 10392 10383 10374 10366 10359 10352 10346 10340 10335 10330
10708 10711 10714 10716 10719 10723 10726 10729 10732 10733 10735 10737 10738 10739 10740 10740 10740 10740 10740 10741 10741 10740 10740 10739 10738 10737 10735 10733 10731 10730 10728 10726 10723 10720 10716 10713 10710 10707 10704 10701 10697 10694 10690 10687 10682 10677 10672 10666 10660 10654 10648 10643 10637 10629 10621 10613 10606 10601 10595 10587 10579 10571 10561 10549 10539 10529 10514 10499 10485 10472 10462 10450 10436 10423 10411 10402 10394 10385 10377 10369 10361 10353 10345 10338 10331 10326 10321 10317
10708 10711 10714 10716 10719 10722 10725 10728 10730 10732 10734 10736 10737 10737 10738 10739 10739 10738 10739 10739 10739 10739 10739 10738 10736 10734 10732 10730 10729 10727 10725 10722 10720 10717 10714 10711 10708 10704 10702 10699 10696 10692 10688 10684 10680 10674 10669 10663 10657 10651 10645 10639 10632 10625 10618 10611 10605 10598 10591 10582 10572 10564 10558 10547 10535 10523 10508 10493 10479 10465 10453 10440 10425 10411 10399 10389 10379 10370 10363 10355 10348 10342 10334 10327 10320 10314 10308 10303
10707 10710 10713 10716 10719 10722 10724 10727 10729 10731 10733 10734 10736 10737 10737 10737 10737 10737 10737 10738 10738 10738 10737 10735 10733 10731 10730 10728 10727 10724 10722 10720 10718 10715 10712 10709 10705 10702 10700 10697 10694 10691 10687 10683 10678 10673 10667 10661 10655 10649 10641 10634 10628 10623 10617 10611 10604 10595 10586 10577 10568 10558 10551 10542 10531 10520 10505 10488 10475 10462 10449 10433 10416 10401 10387 10376 10366 10357 10349 10342 10335 10328 10322 10316 10309 10303 10297 10291
10707 10710 10713 10716 10718 10721 10723 10726 10728 10730 10732 10734 10735 10736 10736 10736 10736 10736 10736 10737 10737 10736 10734 10732 10730 10729 10728 10726 10724 10722 10720 10718 10715 10713 10710 10706 10703 10700 10698 10695 10692 10689 10685 10681 10676 10670 10665 10659 10652 10643 10636 10631 10627 10621 10613 10605 10596 10588 10580 10574 10565 10552 10542 10534 10525 10517 10504 10487 10471 10458 10445 10429 10411 10393 10378 10364 10354 10345 10336 10329 10322 10315 10309 10303 10297 10291 10285 10279
10706 10710 10713 10715 10718 10720 10723 10725 10728 10730 10731 10733 10734 10734 10734 10734 10735 10735 10735 10736 10735 10733 10732 10730 10728 10727 10725 10724 10722 10720 10718 10715 10713 10710 10708 10705 10702 10699 10696 10693 10690 10687 10683 10677 10672 10667 10662 10656 10649 10641 10636 10632 10625 10616 10607 10598 10588 10581 10573 10567 10558 10546 10535 10527 10518 10510 10500 10485 10467 10451 10438 10422 10404 10387 10371 10357 10345 10335 10326 10318 10310 10303 10297 10291 10285 10279 10273 10268
10706 10710 10713 10715 10717 10720 10722 10725 10727 10729 10731 10732 10733 10733 10733 10733 10734 10734 10734 10734 10732 10731 10729 10728 10726 10725 10723 10722 10720 10718 10716 10714 10711 10709 10707 10704 10701 10698 10695 10692 10689 10684 10679 10675 10670 10666 10661 10655 10648 10643 10637 10629 10619 10611 10602 10593 10585 10577 10569 10559 10551 10541 10531 10522 10514 10505 10494 10480 10462 10444 10428 10413 10397 10381 10366 10352 10339 10327 10318 10309 10300 10293 10286 10280 10273 10267 10261 10256
10707 10710 10713 10715 10717 10720 10722 10724 10726 10728 10730 10731 10731 10732 10732 10732 10733 10733 10733 10732 10730 10728 10727 10726 10725 10723 10722 10720 10718 10716 10714 10712 10710 10708 10706 10703 10700 10697 10693 10689 10686 10681 10678 10674 10670 10665 10659 10653 10648 10641 10633 10624 10615 10606 10597 10590 10582 10573 10563 10555 10548 10541 10530 10517 10507 10498 10488 10476 10457 10438 10422 10406 10391 10376 10361 10346 10333 10321 10310 10301 10292 10284 10277 10270 10263 10257 10251 10246
10707 10710 10713 10715 10718 10720 10722 10724 10726 10727 10729 10729 10730 10730 10731 10732 10732 10731 10731 10729 10728 10726 10725 10724 10723 10721 10720 10718 10716 10715 10713 10711 10709 10707 10705 10703 10699 10695 10691 10687 10684 10680 10677 10673 10668 10663 10657 10652 10646 10638 10629 10621 10612 10603 10594 10586 10577 10568 10560 10554 10547 10540 10532 10519 10503 10489 10478 10468 10453 10435 10422 10408 10391 10374 10357 10342 10328 10316 10305 10295 10286 10277 10269 10262 10255 10249 10243 10237
10707 10710 10713 10715 10718 10720 10722 10724 10725 10726 10727 10728 10729 10729 10730 10730 10730 10729 10728 10727 10726 10724 10723 10722 10721 10719 10718 10716 10715 10713 10712 10710 10708 10706 10704 10701 10698 10694 10690 10686 10683 10679 10675 10671 10667 10661 10655 10649 10642 10635 10627 10619 10610 10602 10592 10581 10572 10566 10560 10553 10544 10533 10524 10515 10503 10488 10472 10460 10450 10437 10423 10410 10393 10375 10357 10342 10329 10316 10303 10292 10282 10272 10264 10255 10248 10241 10234 10228
10707 10710 10713 10716 10718 10720 10722 10723 10725 10725 10726 10727 10727 10728 10728 10728 10728 10727 10726 10725 10724 10723 10722 10720 10719 10718 10717 10715 10714 10713 10711 10709 10707 10704 10702 10699 10696 10693 10690 10686 10682 10678 10675 10670 10664 10658 10652 10646 10639 10632 10625 10617 10609 10600 10591 10581 10573 10566 10558 10549 10539 10528 10515 10505 10496 10485 10472 10460 10451 10441 10426 10408 10390 10375 10359 10343 10328 10315 10302 10291 10280 10270 10261 10252 10243 10235 10228 10220
10707 10710 10713 10716 10718 10720 10721 10723 10724 10724 10725 10726 10726 10727 10727 10726 10726 10725 10724 10723 10722 10721 10720 10719 10718 10717 10716 10715 10713 10712 10710 10707 10705 10702 10699 10698 10695 10692 10689 10685 10681 10677 10673 10668 10661 10654 10648 10642 10636 10630 10622 10614 10606 10598 10590 10582 10574 10566 10556 10545 10533 10523 10512 10502 10490 10478 10469 10459 10448 10437 10426 10412 10393 10375 10357 10340 10325 10312 10300 10288 10276 10265 10256 10248 10240 10231 10223 10214
10708 10710 10713 10716 10718 10719 10721 10722 10723 10723 10724 10724 10725 10725 10725 10724 10724 10723 10722 10721 10721 10720 10719 10718 10717 10716 10715 10714 10712 10710 10708 10705 10702 10700 10698 10696 10694 10691 10688 10684 10680 10675 10670 10665 10658 10652 10646 10640 10633 10627 10620 10611 10604 10596 10590 10582 10573 10563 10552 10542 10530 10519 10509 10499 10485 10474 10464 10455 10446 10435 10420 10405 10389 10371 10353 10336 10321 10306 10292 10280 10270 10259 10249 10241 10233 10225 10217 10208
10708 10710 10713 10715 10717 10719 10720 10721 10722 10722 10723 10723 10723 10723 10723 10722 10722 10721 10721 10720 10719 10719 10718 10718 10717 10716 10714 10713 10711 10708 10706 10704 10701 10699 10697 10694 10692 10689 10686 10683 10679 10673 10666 10661 10655 10650 10644 10637 10630 10623 10617 10610 10604 10597 10590 10581 10570 10560 10549 10539 10529 10518 10506 10495 10485 10476 10467 10456 10446 10433 10413 10393 10378 10364 10348 10330 10312 10298 10286 10275 10264 10254 10243 10233 10224 10216 10208 10200
10707 10710 10713 10715 10717 10718 10719 10720 10721 10721 10722 10722 10722 10722 10721 10721 10721 10720 10720 10719 10718 10718 10717 10717 10716 10715 10713 10711 10709 10707 10705 10703 10700 10698 10695 10693 10690 10687 10683 10680 10676 10670 10663 10658 10653 10648 10641 10635 10629 10622 10615 10609 10602 10595 10586 10577 10568 10559 10549 10538 10527 10514 10503 10495 10489 10479 10468 10456 10440 10421 10403 10386 10372 10357 10339 10322 10308 10296 10284 10271 10259 10249 10240 10231 10222 10213 10203 10194
10708 10710 10712 10714 10716 10718 10719 10719 10720 10720 10721 10721 10721 10720 10720 10720 10720 10719 10719 10718 10718 10717 10717 10716 10715 10714 10712 10710 10708 10706 10704 10701 10699 10696 10694 10691 10688 10684 10681 10676 10671 10666 10661 10656 10651 10646 10640 10634 10628 10620 10613 10606 10599 10590 10582 10574 10565 10556 10548 10538 10526 10515 10505 10498 10491 10480 10467 10452 10430 10407 10392 10379 10365 10349 10330 10315 10304 10290 10276 10264 10255 10246 10238 10228 10218 10209 10199 10189
10708 10710 10712 10714 10716 10717 10718 10718 10719 10719 10719 10719 10719 10719 10719 10719 10719 10718 10718 10718 10717 10717 10717 10716 10715 10713 10711 10709 10707 10705 10703 10701 10698 10695 10693 10689 10685 10681 10676 10670 10665 10662 10659 10654 10649 10645 10639 10633 10626 10619 10611 10603 10594 10586 10578 10570 10562 10555 10548 10540 10530 10522 10512 10500 10487 10477 10462 10440 10417 10399 10388 10377 10361 10343 10328 10313 10298 10282 10271 10263 10254 10243 10232 10221 10211 10202 10192 10183
10708 10710 10712 10714 10715 10716 10717 10717 10718 10718 10718 10718 10718 10718 10718 10718 10718 10718 10717 10717 10717 10717 10716 10715 10713 10712 10710 10708 10707 10704 10702 10699 10696 10693 10688 10684 10679 10675 10670 10666 10663 10660 10657 10653 10649 10644 10638 10631 10624 10617 10610 10601 10592 10583 10575 10566 10559 10552 10546 10543 10538 10530 10517 10502 10484 10466 10445 10424 10411 10401 10388 10373 10356 10341 10330 10316 10300 10287 10277 10265 10252 10239 10227 10216 10206 10197 10188 10179
10708 10710 10711 10713 10714 10715 10716 10716 10717 10717 10717 10717 10717 10718 10718 10717 10717 10717 10717 10717 10717 10716 10715 10714 10713 10711 10709 10707 10705 10703 10700 10697 10694 10690 10686 10683 10680 10677 10673 10670 10666 10662 10658 10653 10647 10640 10634 10628 10622 10616 10608 10600 10591 10583 10574 10566 10559 10551 10543 10537 10532 10522 10508 10494 10476 10456 10436 10421 10411 10401 10385 10369 10355 10343 10329 10314 10302 10292 10278 10261 10245 10232 10221 10211 10201 10192 10184 10175
10707 10709 10711 10712 10713 10714 10715 10715 10716 10716 10716 10716 10717 10717 10717 10717 10717 10716 10716 10716 10716 10716 10715 10713 10712 10710 10708 10706 10704 10702 10699 10696 10693 10690 10687 10684 10681 10677 10673 10669 10664 10659 10655 10650 10644 10639 10633 10627 10620 10613 10604 10596 10588 10580 10572 10563 10553 10542 10530 10518 10507 10497 10486 10472 10457 10443 10434 10424 10410 10397 10385 10372 10359 10344 10325 10311 10302 10289 10272 10254 10239 10226 10215 10204 10195 10186 10177 10169
10707 10709 10710 10712 10712 10713 10714 10714 10715 10715 10715 10716 10716 10716 10716 10716 10716 10716 10716 10716 10716 10715 10714 10713 10711 10709 10707 10705 10703 10701 10698 10695 10692 10689 10686 10683 10679 10675 10671 10666 10662 10656 10651 10646 10642 10637 10631 10624 10617 10608 10599 10591 10582 10574 10565 10555 10545 10533 10521 10507 10496 10487 10473 10457 10444 10434 10427 10421 10410 10396 10385 10373 10359 10342 10326 10314 10303 10287 10267 10249 10234 10222 10211 10200 10190 10181 10172 10163
10707 10709 10710 10711 10711 10712 10713 10713 10714 10714 10715 10715 10715 10715 10715 10715 10716 10716 10716 10716 10715 10714 10713 10712 10710 10708 10706 10704 10702 10700 10697 10694 10691 10688 10685 10681 10677 10674 10670 10666 10661 10655 10649 10643 10637 10632 10625 10619 10611 10603 10595 10587 10578 10570 10560 10552 10542 10532 10521 10510 10499 10488 10476 10463 10450 10436 10423 10415 10408 10399 10388 10375 10361 10345 10330 10316 10300 10283 10264 10249 10237 10225 10213 10202 10191 10179 10169 10159
10707 10708 10709 10710 10710 10711 10712 10713 10713 10714 10714 10714 10715 10715 10715 10715 10715 10715 10715 10715 10714 10713 10712 10711 10709 10707 10705 10703 10701 10699 10696 10693 10690 10687 10684 10680 10676 10673 10668 10664 10659 10654 10648 10641 10634 10627 10621 10613 10606 10598 10591 10584 10575 10566 10557 10548 10539 10531 10522 10512 10498 10486 10480 10475 10463 10450 10434 10418 10406 10399 10388 10375 10359 10343 10329 10316 10298 10280 10265 10254 10244 10231 10217 10204 10193 10181 10169 10158
10706 10707 10708 10709 10710 10711 10711 10712 10713 10713 10714 10714 10714 10714 10714 10715 10715 10715 10715 10715 10714 10713 10711 10710 10708 10706 10705 10702 10700 10697 10695 10692 10689 10686 10682 10679 10675 10671 10667 10662 10657 10652 10646 10639 10631 10623 10616 10609 10602 10595 10588 10581 10573 10564 10555 10545 10536 10528 10518 10508 10498 10487 10478 10472 10465 10456 10444 10426 10406 10390 10377 10364 10350 10338 10329 10316 10297 10280 10269 10259 10249 10237 10223 10208 10195 10183 10171 10158
10706 10707 10708 10708 10709 10710 10711 10711 10712 10712 10713 10713 10714 10714 10714 10714 10715 10715 10715 10714 10713 10712 10710 10709 10707 10705 10703 10701 10698 10696 10693 10690 10687 10684 10681 10677 10674 10670 10665 10660 10655 10650 10643 10636 10629 10621 10614 10607 10600 10593 10585 10577 10569 10561 10553 10544 10535 10526 10515 10504 10495 10484 10471 10462 10454 10443 10433 10423 10410 10392 10374 10360 10347 10335 10323 10308 10293 10281 10272 10262 10250 10238 10226 10212 10198 10185 10173 10160
10705 10706 10707 10708 10709 10710 10710 10711 10712 10712 10712 10713 10713 10714 10714 10714 10714 10714 10714 10713 10712 10711 10709 10708 10706 10704 10701 10699 10697 10694 10691 10688 10685 10682 10679 10675 10672 10667 10663 10658 10653 10648 10642 10635 10627 10619 10612 10605 10597 10589 10581 10574 10567 10559 10551 10544 10536 10527 10517 10505 10492 10479 10466 10456 10447 10436 10424 10415 10407 10393 10376 10359 10344 10332 10318 10302 10290 10282 10271 10259 10247 10235 10224 10212 10199 10186 10174 10163
10704 10705 10707 10708 10709 10709 10710 10711 10711 10712 10712 10712 10713 10713 10713 10713 10714 10714 10713 10712 10711 10710 10708 10706 10704 10702 10700 10698 10695 10692 10689 10687 10684 10680 10677 10673 10669 10665 10660 10656 10651 10646 10640 10634 10627 10619 10611 10603 10595 10587 10579 10572 10565 10558 10551 10543 10535 10525 10515 10504 10493 10482 10471 10459 10447 10436 10422 10409 10398 10388 10376 10361 10346 10331 10314 10300 10292 10283 10270 10257 10246 10235 10223 10211 10198 10186 10174 10164
10704 10705 10706 10707 10708 10709 10710 10710 10711 10711 10712 10712 10712 10713 10713 10713 10713 10713 10712 10711 10710 10708 10707 10705 10703 10701 10698 10696 10693 10691 10688 10685 10682 10678 10675 10671 10666 10662 10657 10653 10648 10644 10639 10633 10627 10620 10611 10602 10594 10587 10581 10572 10563 10556 10551 10542 10531 10521 10511 10501 10492 10484 10474 10462 10448 10436 10424 10409 10393 10381 10370 10357 10343 10327 10312 10302 10293 10284 10274 10263 10250 10237 10225 10212 10198 10186 10174 10164
10704 10705 10706 10707 10708 10708 10709 10710 10711 10711 10711 10712 10712 10712 10712 10712 10712 10712 10711 10710 10709 10707 10705 10703 10701 10699 10697 10694 10692 10689 10686 10683 10680 10676 10672 10668 10664 10659 10654 10650 10645 10640 10636 10631 10625 10619 10612 10604 10595 10586 10578 10570 10562 10555 10548 10541 10532 10521 10511 10501 10493 10483 10472 10460 10447 10435 10428 10418 10403 10386 10370 10355 10341 10329 10319 10310 10299 10288 10277 10266 10253 10239 10226 10213 10200 10187 10175 10164
10704 10705 10706 10706 10707 10708 10709 10710 10710 10711 10711 10711 10712 10712 10712 10712 10711 10711 10710 10709 10707 10706 10704 10702 10700 10698 10695 10693 10690 10688 10685 10681 10678 10674 10670 10666 10662 10657 10652 10647 10641 10636 10631 10626 10622 10617 10612 10606 10598 10589 10580 10572 10565 10557 10548 10541 10533 10523 10513 10502 10492 10483 10472 10460 10446 10433 10425 10417 10406 10390 10374 10361 10350 10338 10328 10318 10307 10294 10281 10268 10255 10242 10227 10214 10201 10189 10177 10164
10704 10704 10705 10706 10706 10708 10709 10709 10710 10710 10711 10711 10711 10711 10711 10711 10710 10709 10709 10707 10706 10704 10702 10700 10699 10696 10694 10692 10689 10686 10683 10680 10676 10672 10668 10664 10660 10655 10650 10644 10638 10633 10627 10621 10616 10611 10607 10602 10596 10591 10585 10578 10569 10560 10550 10539 10528 10519 10510 10500 10490 10480 10470 10460 10450 10438 10424 10413 10404 10393 10379 10367 10356 10345 10334 10324 10313 10300 10284 10269 10256 10243 10229 10215 10203 10191 10179 10164
10704 10704 10705 10705 10706 10707 10708 10709 10710 10710 10710 10710 10711 10711 10710 10710 10709 10708 10707 10706 10704 10702 10701 10699 10697 10695 10693 10690 10687 10684 10681 10678 10675 10671 10667 10662 10658 10653 10648 10642 10636 10630 10624 10617 10610 10605 10600 10595 10589 10583 10576 10567 10558 10549 10540 10530 10521 10513 10505 10496 10488 10479 10469 10459 10450 10440 10425 10412 10403 10397 10387 10375 10364 10354 10344 10331 10318 10305 10290 10274 10259 10244 10230 10217 10205 10192 10179 10167
10704 10704 10705 10705 10705 10706 10707 10708 10709 10709 10709 10710 10710 10710 10709 10708 10707 10707 10705 10704 10702 10701 10699 10697 10695 10693 10691 10689 10686 10683 10679 10676 10673 10669 10665 10660 10656 10651 10646 10641 10635 10629 10623 10616 10609 10602 10595 10589 10584 10576 10568 10558 10549 10541 10533 10525 10517 10509 10502 10495 10488 10478 10469 10460 10450 10440 10430 10418 10404 10392 10384 10376 10368 10358 10347 10333 10317 10303 10291 10278 10263 10248 10233 10220 10206 10193 10180 10169
10704 10704 10704 10704 10705 10706 10706 10707 10708 10708 10709 10709 10709 10709 10708 10707 10706 10705 10704 10702 10701 10699 10697 10696 10694 10692 10689 10687 10684 10681 10678 10674 10671 10667 10663 10658 10654 10649 10644 10639 10634 10628 10622 10616 10609 10601 10593 10586 10579 10573 10566 10559 10550 10542 10533 10525 10517 10509 10501 10495 10488 10479 10469 10460 10450 10440 10430 10419 10406 10394 10385 10376 10364 10353 10341 10329 10316 10302 10289 10276 10262 10248 10235 10221 10208 10195 10183 10173
10703 10704 10704 10704 10705 10705 10706 10706 10707 10707 10708 10708 10708 10707 10707 10706 10705 10704 10702 10701 10699 10697 10696 10694 10692 10690 10688 10685 10682 10679 10676 10672 10669 10665 10661 10657 10652 10648 10643 10638 10633 10628 10622 10616 10609 10602 10594 10585 10578 10571 10565 10559 10551 10543 10534 10526 10518 10510 10502 10495 10488 10479 10469 10460 10450 10439 10428 10416 10406 10395 10385 10374 10364 10352 10340 10328 10315 10301 10286 10273 10261 10250 10237 10224 10212 10200 10189 10178
10703 10704 10704 10704 10705 10705 10705 10706 10706 10706 10707 10707 10706 10706 10705 10704 10703 10702 10701 10699 10698 10696 10694 10692 10690 10688 10686 10683 10681 10677 10674 10670 10667 10663 10659 10655 10651 10647 10642 10637 10632 10627 10621 10615 10609 10602 10595 10587 10579 10572 10565 10558 10552 10544 10537 10529 10520 10510 10502 10495 10488 10480 10471 10462 10453 10442 10431 10419 10408 10396 10383 10372 10362 10353 10343 10331 10317 10302 10288 10276 10266 10255 10242 10228 10217 10206 10195 10182
10703 10703 10704 10704 10704 10705 10705 10705 10705 10705 10705 10705 10705 10704 10704 10703 10702 10700 10699 10698 10696 10694 10692 10691 10689 10686 10684 10681 10679 10675 10672 10668 10665 10661 10657 10653 10649 10645 10640 10636 10631 10625 10620 10614 10608 10602 10595 10588 10581 10573 10566 10560 10553 10546 10538 10529 10520 10512 10505 10496 10487 10480 10471 10461 10451 10440 10430 10419 10408 10398 10386 10374 10363 10354 10343 10330 10317 10307 10297 10285 10273 10259 10246 10234 10223 10211 10199 10186
10702 10703 10703 10703 10704 10704 10704 10704 10704 10704 10704 10704 10703 10703 10702 10701 10700 10699 10697 10696 10694 10693 10691 10689 10687 10684 10682 10679 10676 10673 10670 10666 10662 10658 10655 10651 10647 10643 10638 10634 10629 10623 10618 10613 10607 10601 10595 10589 10582 10575 10568 10560 10553 10546 10539 10530 10521 10514 10507 10497 10486 10478 10470 10459 10447 10436 10427 10418 10409 10397 10386 10375 10366 10357 10345 10332 10321 10311 10301 10290 10277 10261 10248 10238 10228 10216 10202 10189
10702 10702 10702 10702 10703 10703 10703 10703 10703 10703 10703 10702 10702 10701 10700 10700 10698 10697 10696 10694 10693 10691 10689 10687 10685 10682 10680 10677 10674 10671 10668 10664 10660 10656 10653 10649 10644 10640 10636 10631 10626 10621 10616 10611 10605 10600 10594 10589 10583 10576 10568 10560 10552 10545 10537 10531 10524 10516 10506 10496 10487 10477 10468 10459 10449 10436 10425 10414 10404 10394 10386 10377 10367 10356 10346 10336 10325 10313 10301 10290 10277 10262 10251 10241 10231 10219 10205 10191